Geneva, Switzerland

1:51 PM CET on February 27, 2017 (GMT +0100)
Cointrin

Weather History for LSGG - November, 2011

Change the Weather History Date:

Thursday, November 17, 2011

  Actual Average Record
Temperature  
Mean Temperature 38 °F -  
Max Temperature 49 °F 43 °F 62 °F (2015)
Min Temperature 27 °F 32 °F 26 °F (2004)
Degree Days  
Heating Degree Days 27    
Moisture  
Dew Point 32 °F    
Average Humidity 82    
Maximum Humidity 100    
Minimum Humidity 41    
Precipitation  
Precipitation 0.00 in 0.11 in - ()
Sea Level Pressure  
Sea Level Pressure 30.28 in    
Wind  
Wind Speed 2 mph ()    
Max Wind Speed 5 mph    
Max Gust Speed -    
Visibility 4.5 miles    
Events Fog    
Averages and records for this station are not official NWS values.
T = Trace of Precipitation, MM = Missing Value Source: Averaged Metar Reports

Daily Weather History Graph

Daily Weather History Graph

Search for Another Location

Airport or City:

Trip Planner

Search our weather history database for the weather conditions in past years. The results will help you decide how hot, cold, wet, or windy it might be!

Date:

Astronomy

Nov. 17, 2011 Rise Set
Actual Time 7:38 AM CET 5:01 PM CET
Civil Twilight 7:05 AM CET 5:34 PM CET
Nautical Twilight 6:29 AM CET 6:10 PM CET
Astronomical Twilight 5:53 AM CET 6:46 PM CET
Moon 11:10 PM CET (11/17) 12:34 PM CET (11/17)
Length of Visible Light 10h 28m
Length of Day
9h 22m
Waning Gibbous, 62% of the Moon is Illuminated
Nov 17
Waning Gibbous
Nov 18
Last Quarter
Nov 25
New
Dec 2
First Quarter
Dec 10
Full

Hourly Weather History & Observations

Time (CET) Temp. Dew Point Humidity Pressure Visibility Wind Dir Wind Speed Gust Speed Precip Events Conditions
12:00 AM 32 °F 30 °F 89% 30.30 in - WSW 1.2 mph - -  
12:20 AM 32.0 °F 30.2 °F 93% 30.24 in 3.7 mi Variable 2.3 mph - N/A   Unknown
12:50 AM 30.2 °F 30.2 °F 100% 30.24 in 3.7 mi WSW 2.3 mph - N/A   Unknown
1:00 AM 30 °F 29 °F 93% 30.31 in 4 mi WSW 2.3 mph - -   Mist
1:20 AM 30.2 °F 28.4 °F 93% 30.24 in 3.7 mi Variable 2.3 mph - N/A   Unknown
1:50 AM 30.2 °F 28.4 °F 93% 30.24 in 3.7 mi West 2.3 mph - N/A   Unknown
2:00 AM 29 °F 28 °F 95% 30.32 in - West 1.2 mph - -  
2:50 AM 30.2 °F 28.4 °F 93% 30.24 in 3.7 mi Variable 2.3 mph - N/A   Unknown
3:00 AM 30 °F 28 °F 88% 30.33 in - West 1.2 mph - -  
3:20 AM 28.4 °F 28.4 °F 100% 30.24 in 3.7 mi Variable 2.3 mph - N/A   Unknown
3:50 AM 28.4 °F 28.4 °F 100% 30.24 in 3.7 mi Variable 1.2 mph - N/A   Unknown
4:20 AM 28.4 °F 28.4 °F 100% 30.24 in 3.7 mi West 1.2 mph - N/A   Unknown
4:50 AM 28.4 °F 28.4 °F 100% 30.24 in 3.7 mi West 1.2 mph - N/A   Unknown
5:00 AM 29 °F 26 °F 83% 30.34 in - West 2.3 mph - -  
5:20 AM 28.4 °F 28.4 °F 100% 30.24 in 3.7 mi West 2.3 mph - N/A   Unknown
5:50 AM 28.4 °F 28.4 °F 100% 30.27 in 3.7 mi WSW 1.2 mph - N/A   Unknown
6:00 AM 29 °F 26 °F 84% 30.35 in - WSW 2.3 mph - -  
6:20 AM 28.4 °F 26.6 °F 93% 30.27 in 3.7 mi Variable 2.3 mph - N/A   Unknown
6:49 AM 28.4 °F 26.6 °F 93% 30.27 in 3.7 mi WNW 2.3 mph - N/A Fog Fog
6:50 AM 28.4 °F 26.6 °F 93% 30.27 in 3.7 mi WNW 2.3 mph - N/A   Unknown
7:00 AM 29 °F 27 °F 87% 30.35 in 4 mi West 2.3 mph - -   Mist
7:20 AM 28.4 °F 26.6 °F 93% 30.27 in 3.7 mi Variable 1.2 mph - N/A   Partly Cloudy
7:50 AM 28.4 °F 26.6 °F 93% 30.27 in 2.8 mi WNW 1.2 mph - N/A   Partly Cloudy
8:00 AM 29 °F 27 °F 87% 30.36 in - WSW 1.2 mph - -  
8:20 AM 28.4 °F 28.4 °F 100% 30.27 in 3.7 mi WSW 2.3 mph - N/A   Partly Cloudy
8:50 AM 32.0 °F 30.2 °F 93% 30.27 in 3.7 mi Variable 1.2 mph - N/A   Unknown
9:00 AM 33 °F 30 °F 84% 30.36 in - NW 3.5 mph - -  
9:20 AM 33.8 °F 32.0 °F 93% 30.30 in 4.3 mi Calm Calm - N/A   Partly Cloudy
9:50 AM 37.4 °F 32.0 °F 81% 30.30 in 3.7 mi Variable 2.3 mph - N/A   Partly Cloudy
10:20 AM 39.2 °F 35.6 °F 87% 30.30 in 3.7 mi Variable 2.3 mph - N/A   Partly Cloudy
10:50 AM 41.0 °F 35.6 °F 81% 30.30 in 3.7 mi Variable 2.3 mph - N/A   Partly Cloudy
11:00 AM 42 °F 35 °F 68% 30.33 in - SSW 1.2 mph - -  
11:20 AM 44.6 °F 37.4 °F 76% 30.27 in 3.1 mi Variable 2.3 mph - N/A   Partly Cloudy
11:50 AM 44.6 °F 35.6 °F 71% 30.27 in 3.1 mi Variable 2.3 mph - N/A   Partly Cloudy
12:00 PM 44 °F 36 °F 64% 30.32 in - ENE 1.2 mph - -  
12:20 PM 46.4 °F 37.4 °F 71% 30.27 in 4.3 mi Variable 1.2 mph - N/A   Partly Cloudy
12:50 PM 48.2 °F 37.4 °F 66% 30.27 in 5.0 mi Variable 3.5 mph - N/A   Partly Cloudy
1:00 PM 47 °F 35 °F 53% 30.29 in 4 mi SE 1.2 mph - -   Haze
1:20 PM 48.2 °F 37.4 °F 66% 30.24 in 5.0 mi Variable 2.3 mph - N/A   Partly Cloudy
1:48 PM 50.0 °F 35.6 °F 58% 30.24 in 5.0 mi Variable 2.3 mph - N/A   Partly Cloudy
2:00 PM 48 °F 34 °F 47% 30.27 in - NE 2.3 mph - -  
2:20 PM 50.0 °F 33.8 °F 54% 30.24 in 5.0 mi Variable 1.2 mph - N/A   Partly Cloudy
2:50 PM 50.0 °F 33.8 °F 54% 30.24 in 6.2 mi Variable 1.2 mph - N/A   Partly Cloudy
3:00 PM 49 °F 33 °F 41% 30.27 in - NE 1.2 mph - -  
3:20 PM 51.8 °F 33.8 °F 50% 30.24 in 6.2 mi Calm Calm - N/A   Partly Cloudy
3:50 PM 50.0 °F 35.6 °F 58% 30.24 in 5.6 mi East 4.6 mph - N/A   Partly Cloudy
4:20 PM 48.2 °F 35.6 °F 62% 30.24 in 5.6 mi Variable 3.5 mph - N/A   Partly Cloudy
4:50 PM 46.4 °F 37.4 °F 71% 30.24 in 5.6 mi Variable 2.3 mph - N/A   Partly Cloudy
5:00 PM 44 °F 36 °F 63% 30.29 in - NNE 2.3 mph - -  
5:20 PM 44.6 °F 37.4 °F 76% 30.24 in 5.0 mi NNE 1.2 mph - N/A   Partly Cloudy
5:50 PM 42.8 °F 37.4 °F 81% 30.27 in 5.0 mi Variable 1.2 mph - N/A   Partly Cloudy
6:00 PM 43 °F 36 °F 67% 30.30 in - North 2.3 mph - -  
6:20 PM 41.0 °F 35.6 °F 81% 30.27 in 5.0 mi Variable 1.2 mph - N/A   Partly Cloudy
6:50 PM 41.0 °F 35.6 °F 81% 30.27 in 5.6 mi Variable 1.2 mph - N/A   Unknown
7:00 PM 42 °F 35 °F 70% 30.32 in 5 mi West 1.2 mph - -   Mist
7:20 PM 39.2 °F 35.6 °F 87% 30.27 in 5.0 mi Calm Calm - N/A   Partly Cloudy
7:50 PM 39.2 °F 35.6 °F 87% 30.27 in 5.6 mi Calm Calm - N/A   Unknown
8:00 PM 38 °F 35 °F 82% 30.33 in - North 1.2 mph - -  
8:20 PM 37.4 °F 33.8 °F 87% 30.27 in 5.6 mi Calm Calm - N/A   Unknown
8:50 PM 37.4 °F 33.8 °F 87% 30.27 in 5.6 mi Variable 1.2 mph - N/A   Unknown
9:00 PM 37 °F 34 °F 84% 30.34 in - SE 1.2 mph - -  
9:20 PM 35.6 °F 33.8 °F 93% 30.27 in 5.6 mi Variable 1.2 mph - N/A   Unknown
9:50 PM 35.6 °F 33.8 °F 93% 30.27 in 5.6 mi Variable 1.2 mph - N/A   Unknown
10:20 PM 35.6 °F 33.8 °F 93% 30.27 in 5.6 mi Variable 1.2 mph - N/A   Unknown
10:50 PM 33.8 °F 33.8 °F 100% 30.27 in 5.6 mi Calm Calm - N/A   Unknown
11:00 PM 34 °F 32 °F 87% 30.35 in - NW 3.5 mph - -  
11:20 PM 33.8 °F 32.0 °F 93% 30.27 in 5.6 mi Variable 2.3 mph - N/A   Unknown
11:50 PM 33.8 °F 32.0 °F 93% 30.27 in 5.6 mi Variable 1.2 mph - N/A   Unknown